Find Starlink 11507

NORAD ID: 62519 Int'l Des: 2025-004 Owner: SPXS Country: US Constellation: starlink operational
LEOCIRCULAR

当前视图

正在加载3D地球...

About Starlink 11507

Starlink 11507 (NORAD 62519) is a starlink constellation satellite (v2 mini d2c) launched Jan 8, 2025 by SPXS of US. It operates in LEO, CIRCULAR orbit with a mass of 960.00 kg.

关于 Starlink 11507

正在加载描述...

即将过境

Passes for default location (London). Set your location on the main map for personalized predictions.

高度历史

Loading altitude history...

两行轨道根数

1 62519U 25004J 26169.19231860 .00058853 00000-0 45728-3 0 9996
2 62519 43.0007 185.0519 0001668 252.1179 107.9507 15.70924237 83017
Epoch: Jun 18, 2026 • Age: 48 hours

当前状态

高度 354.9 km
速度 7.70 km/s
星下点 5.15°N, 9.37°E
发射日期 Jan 8, 2025
运行时间 1.4 years
类型 internet

技术详情

分类 Payload
质量 960.00 kg
干质量 910.00 kg
总质量 960.00 kg
长度 0.30 m
直径 4.10 m
跨度 29.00 m
形状 Box + pan
制造商 SPXS
平台类型 Starlink V2MD
阶段状态 In Orbit
所有者/国家 SPXS/US

Most Searched